COSMOS 1275 DEB, 17624

Orbit data source: Space-Track

COSMOS 1275 DEB, 17624 is space debris in LEO originally from a launch on Thu, 04 Jun 1981 UTC launched from the Plesetsk Missile And Space Complex (PKMTR). Debris objects in space refer to the collection of defunct objects orbiting the Earth. Examples of debris include non-operational satellites, rocket bodies, and fragments generated from explosions, collisions, or faulty payload assembly.

Loading next visibility...
Identifier
17624, 1981-053KT
Orbit
LEO
Country
Flag of CISCIS
Related business
Manufacturer
Unknown
Mission
Spacecraft
Bus & Motor
Unknown
Mass
Unknown
Launch date (UTC)
1981-06-04 (45 years ago)
Launch vehicle
Unknown
Launch site
Plesetsk Missile And Space Complex (PKMTR)
Object type
Payload
Rocket body
Debris
Shape & HBR
Unknown shape, 0.1 m
Radar Cross Section
Small (<0.1 m²)

Expand to show TLE details & history
Last TLE update: 1 day ago

TLE from 1 day ago
0 COSMOS 1275 DEB
1 17624U 81053KT  26045.34868590  .00007557  00000-0  20355-2 0  9998
2 17624  82.8429 179.8005 0013773 198.8383 191.6696 14.47817460106205
Epoch: 2026-02-14T08:22Z
TLE epoch observation values (Epoch: 2026-02-14T08:22:06.461Z)
Latitude
30.26628°
Longitude
-85.91969°
Altitude
746.248 km
Speed
7.479 km/s
True Right ascension
12h 15m 55s
True Declination
30° 06' 60"
Sunlit
Object was in full shadow at epoch
Visualization orbit readout
Latitude
Unknown
Longitude
Unknown
Altitude
Unknown
Speed
Unknown
Apparent Right ascension
Unknown
Apparent Declination
Unknown
Sunlit
N/A
Visualization observer readout
Local Sidereal Time
17:40:45
Azimuth
Unknown
Elevation
Unknown
Doppler factor
Unknown
Orbital elements
Apogee altitude
739.628 km
Perigee altitude
720.049 km
Semi-major axis
7,107.976 km
Eccentricity
0.00138
Inclination
82.8429°
RAAN
179.8005°
Arg. of periapsis
198.8383°
True anomaly
191.63773°
Mean anomaly
191.6696°
Eccentric anomaly
191.65366°
Mean motion
3.6218 °/min
Orbital period
99.4 mins
BSTAR
0.0020355
Loading maneuver chart data...
Computing Atmospheric mass density...

Documentation

Showing up to 5 results
|